Station Historical Data
Daily Summary for October 6, 2017 Units:  Metric    English   Both
« Previous Day
Next Day »
Daily Weekly Monthly Yearly Custom
  High: Low: Average:
Temperature: 20.6 °C 14.8 °C 17.4 °C
Dew Point: 16 °C 12.4 °C 14.4 °C
Humidity: 91% 72% 83%
Wind Speed: 8km/h 0km/h 1.3km/h
Wind Gust: 12.9km/h - -
Wind- - SW
Pressure: 1018.8 hPa 1016.1 hPa -
Precipitation: 0 mm    
Historical Graphs
 
 
Tabular Data for October 6, 2017
Time Temperature Dew Point Pressure Wind Wind Speed Wind Gust Humidity Rainfall Rate (Hourly)
00:04 15.9 °C 12.6 °C 1018.2 hPa SW 1.6 km/h 8 km/h 81% 0 mm
00:09 15.9 °C 12.6 °C 1018.2 hPa SSW 1.6 km/h 6.4 km/h 81% 0 mm
00:14 15.8 °C 12.7 °C 1018.2 hPa Calm   6.4 km/h 82% 0 mm
00:19 15.7 °C 12.7 °C 1018.2 hPa Calm   6.4 km/h 82% 0 mm
00:24 15.8 °C 12.7 °C 1018.2 hPa Calm   6.4 km/h 82% 0 mm
00:29 15.8 °C 12.8 °C 1018.2 hPa Calm     82% 0 mm
00:34 15.8 °C 12.8 °C 1018.2 hPa Calm     82% 0 mm
00:39 15.8 °C 12.7 °C 1018.2 hPa SW 1.6 km/h 8 km/h 82% 0 mm
00:44 15.8 °C 12.8 °C 1018.2 hPa SW 1.6 km/h 8 km/h 82% 0 mm
00:49 15.8 °C 12.9 °C 1018.2 hPa Calm   4.8 km/h 83% 0 mm
00:54 15.8 °C 12.9 °C 1018.2 hPa WSW 4.8 km/h 8 km/h 83% 0 mm
00:59 15.9 °C 13 °C 1018.2 hPa WSW 1.6 km/h 4.8 km/h 83% 0 mm
01:04 16 °C 13.1 °C 1017.8 hPa Calm   6.4 km/h 83% 0 mm
01:09 16.1 °C 13.2 °C 1017.8 hPa Calm   6.4 km/h 83% 0 mm
01:19 16.3 °C 13.4 °C 1017.8 hPa Calm   4.8 km/h 83% 0 mm
01:24 16.3 °C 13.3 °C 1017.8 hPa Calm   3.2 km/h 82% 0 mm
01:29 16.3 °C 13.2 °C 1017.8 hPa Calm   4.8 km/h 82% 0 mm
01:34 16.3 °C 13.3 °C 1017.8 hPa Calm     82% 0 mm
01:39 16.3 °C 13.2 °C 1017.8 hPa Calm   4.8 km/h 82% 0 mm
01:44 16.3 °C 13.2 °C 1017.8 hPa Calm   4.8 km/h 82% 0 mm
01:49 16.3 °C 13.2 °C 1017.8 hPa Calm   3.2 km/h 82% 0 mm
01:54 16.3 °C 13.2 °C 1017.8 hPa Calm   3.2 km/h 82% 0 mm
01:59 16.3 °C 13 °C 1017.8 hPa SW 1.6 km/h 6.4 km/h 81% 0 mm
02:04 16.3 °C 13 °C 1017.8 hPa Calm   8 km/h 81% 0 mm
02:09 16.3 °C 13 °C 1017.8 hPa SW 1.6 km/h 8 km/h 81% 0 mm
02:14 16.3 °C 12.8 °C 1017.8 hPa SW 4.8 km/h 9.7 km/h 80% 0 mm
02:19 16.3 °C 12.8 °C 1017.8 hPa SW 1.6 km/h 6.4 km/h 80% 0 mm
02:24 16.3 °C 12.6 °C 1017.8 hPa SSW 4.8 km/h 6.4 km/h 79% 0 mm
02:29 16.3 °C 12.7 °C 1017.8 hPa Calm   9.7 km/h 79% 0 mm
02:34 16.3 °C 12.4 °C 1017.8 hPa SW 4.8 km/h 6.4 km/h 78% 0 mm
02:39 16.3 °C 12.6 °C 1018.2 hPa Calm   6.4 km/h 79% 0 mm
02:44 16.3 °C 12.6 °C 1018.2 hPa SW 1.6 km/h 6.4 km/h 79% 0 mm
02:49 16.3 °C 12.5 °C 1018.2 hPa SW 1.6 km/h 4.8 km/h 78% 0 mm
02:54 16.4 °C 12.6 °C 1018.2 hPa SW 1.6 km/h 4.8 km/h 78% 0 mm
02:59 16.4 °C 12.6 °C 1018.2 hPa SW 1.6 km/h 4.8 km/h 78% 0 mm
03:14 16.3 °C 12.6 °C 1018.2 hPa Calm   4.8 km/h 79% 0 mm
03:19 16.3 °C 12.6 °C 1018.2 hPa Calm     79% 0 mm
03:24 16.3 °C 12.7 °C 1018.2 hPa Calm     79% 0 mm
03:29 16.3 °C 12.7 °C 1018.2 hPa Calm     79% 0 mm
03:39 16.3 °C 12.7 °C 1017.8 hPa Calm     79% 0 mm
03:49 16.1 °C 12.7 °C 1017.8 hPa Calm   4.8 km/h 80% 0 mm
03:54 16.1 °C 12.7 °C 1017.8 hPa Calm     80% 0 mm
04:04 16.2 °C 12.6 °C 1017.8 hPa Calm     79% 0 mm
04:09 16.2 °C 12.6 °C 1017.8 hPa Calm     79% 0 mm
04:14 16.1 °C 12.4 °C 1017.8 hPa Calm     79% 0 mm
04:19 16 °C 12.6 °C 1017.8 hPa Calm     80% 0 mm
04:24 16 °C 12.6 °C 1017.8 hPa Calm   3.2 km/h 80% 0 mm
04:29 16.1 °C 12.6 °C 1017.8 hPa Calm     80% 0 mm
04:34 16.2 °C 12.7 °C 1017.8 hPa Calm     80% 0 mm
04:39 16.2 °C 12.7 °C 1017.8 hPa Calm     80% 0 mm
04:44 16.2 °C 12.8 °C 1017.8 hPa Calm     80% 0 mm
04:49 16.3 °C 12.8 °C 1017.8 hPa Calm     80% 0 mm
04:54 16.2 °C 12.9 °C 1017.8 hPa Calm     81% 0 mm
04:59 16.1 °C 12.8 °C 1017.8 hPa Calm     81% 0 mm
05:09 15.9 °C 12.7 °C 1017.8 hPa Calm     81% 0 mm
05:14 15.8 °C 12.7 °C 1017.8 hPa Calm     82% 0 mm
05:19 15.8 °C 12.7 °C 1017.8 hPa Calm     82% 0 mm
05:24 15.8 °C 12.7 °C 1017.8 hPa Calm     82% 0 mm
05:29 15.8 °C 12.8 °C 1017.8 hPa Calm     82% 0 mm
05:34 15.9 °C 13 °C 1017.5 hPa Calm     83% 0 mm
05:39 15.9 °C 13.1 °C 1017.8 hPa Calm     83% 0 mm
05:44 15.9 °C 13.1 °C 1017.8 hPa Calm     83% 0 mm
05:49 15.9 °C 13 °C 1017.8 hPa Calm     83% 0 mm
05:54 15.9 °C 13.2 °C 1017.8 hPa Calm     84% 0 mm
05:59 15.8 °C 13.1 °C 1017.8 hPa Calm     84% 0 mm
06:04 15.7 °C 13.2 °C 1018.2 hPa Calm     85% 0 mm
06:09 15.7 °C 13.3 °C 1018.2 hPa Calm     86% 0.25 mm
06:14 15.6 °C 13.3 °C 1018.2 hPa Calm     86% 0.25 mm
06:19 15.6 °C 13.4 °C 1018.2 hPa Calm     87% 0.51 mm
06:24 15.5 °C 13.3 °C 1018.5 hPa Calm     87% 0.51 mm
06:29 15.5 °C 13.5 °C 1018.5 hPa Calm     88% 0.76 mm
06:39 15.5 °C 13.7 °C 1018.5 hPa Calm     89% 1.27 mm
06:44 15.5 °C 13.7 °C 1018.5 hPa Calm     89% 1.52 mm
06:54 15.3 °C 13.6 °C 1018.5 hPa Calm     89% 1.78 mm
06:59 15.2 °C 13.4 °C 1018.5 hPa Calm     89% 2.03 mm
07:04 15 °C 13.2 °C 1018.5 hPa Calm     89% 2.03 mm
07:09 14.9 °C 13.2 °C 1018.5 hPa Calm     89% 1.78 mm
07:14 14.9 °C 13.1 °C 1018.5 hPa Calm     89% 1.78 mm
07:19 14.8 °C 13.1 °C 1018.5 hPa Calm     89% 1.52 mm
07:24 14.8 °C 13.1 °C 1018.5 hPa Calm     89% 1.52 mm
07:29 14.8 °C 13 °C 1018.5 hPa Calm     89% 1.52 mm
07:34 14.8 °C 13.2 °C 1018.5 hPa Calm     90% 1.27 mm
07:39 14.9 °C 13.3 °C 1018.5 hPa Calm     90% 1.27 mm
07:44 14.8 °C 13.2 °C 1018.5 hPa Calm     90% 1.02 mm
07:49 14.8 °C 13.2 °C 1018.5 hPa Calm     90% 1.02 mm
07:59 14.9 °C 13.3 °C 1018.5 hPa Calm     90% 0.76 mm
08:04 14.8 °C 13.2 °C 1018.5 hPa Calm     90% 0.76 mm
08:09 14.8 °C 13.2 °C 1018.5 hPa Calm     90% 0.76 mm
08:14 14.8 °C 13.2 °C 1018.5 hPa Calm     90% 0.76 mm
08:19 14.8 °C 13.2 °C 1018.5 hPa Calm     90% 0.76 mm
08:24 14.9 °C 13.3 °C 1018.5 hPa Calm     90% 0.76 mm
08:29 14.9 °C 13.3 °C 1018.5 hPa Calm     90% 0.51 mm
08:34 15 °C 13.4 °C 1018.5 hPa Calm     90% 0.51 mm
08:39 15.1 °C 13.4 °C 1018.5 hPa Calm     90% 0.25 mm
08:44 15.1 °C 13.5 °C 1018.5 hPa Calm     90% 0.25 mm
08:49 15.2 °C 13.6 °C 1018.5 hPa Calm     90% 0.25 mm
08:54 15.2 °C 13.6 °C 1018.5 hPa Calm     90% 0.25 mm
08:59 15.2 °C 13.6 °C 1018.5 hPa Calm     90% 0 mm
09:04 15.2 °C 13.6 °C 1018.5 hPa Calm     90% 0 mm
09:09 15.2 °C 13.6 °C 1018.8 hPa Calm     90% 0 mm
09:14 15.2 °C 13.6 °C 1018.5 hPa Calm     90% 0 mm
09:19 15.2 °C 13.6 °C 1018.8 hPa Calm   3.2 km/h 90% 0 mm
09:24 15.3 °C 13.7 °C 1018.8 hPa Calm   3.2 km/h 90% 0 mm
09:29 15.3 °C 13.7 °C 1018.8 hPa Calm   6.4 km/h 90% 0 mm
09:34 15.4 °C 13.8 °C 1018.8 hPa Calm   6.4 km/h 90% 0 mm
09:39 15.4 °C 13.8 °C 1018.8 hPa Calm   3.2 km/h 90% 0 mm
09:44 15.6 °C 13.9 °C 1018.8 hPa Calm   3.2 km/h 90% 0 mm
09:49 15.7 °C 14.1 °C 1018.8 hPa Calm     90% 0 mm
09:54 15.9 °C 14.3 °C 1018.8 hPa Calm     90% 0 mm
09:59 16.1 °C 14.4 °C 1018.5 hPa SW 6.4 km/h 8 km/h 90% 0 mm
10:04 16.4 °C 14.6 °C 1018.5 hPa SW 1.6 km/h 6.4 km/h 89% 0 mm
10:09 16.6 °C 14.8 °C 1018.8 hPa Calm   6.4 km/h 89% 0 mm
10:14 16.6 °C 14.6 °C 1018.8 hPa Calm   8 km/h 88% 0 mm
10:19 16.8 °C 14.8 °C 1018.8 hPa SW 1.6 km/h 8 km/h 88% 0 mm
10:24 16.8 °C 14.8 °C 1018.5 hPa SSW 1.6 km/h 6.4 km/h 88% 0 mm
10:29 16.8 °C 14.8 °C 1018.8 hPa SW 1.6 km/h 6.4 km/h 88% 0 mm
10:34 16.9 °C 14.9 °C 1018.5 hPa SSW 1.6 km/h 6.4 km/h 88% 0 mm
10:39 16.9 °C 14.9 °C 1018.5 hPa SSW 1.6 km/h 8 km/h 88% 0 mm
10:44 17.1 °C 15.1 °C 1018.5 hPa SW 1.6 km/h 6.4 km/h 88% 0 mm
10:49 17.2 °C 15 °C 1018.5 hPa Calm   4.8 km/h 87% 0 mm
10:54 17.2 °C 15 °C 1018.8 hPa Calm   6.4 km/h 87% 0 mm
10:59 17.2 °C 15.1 °C 1018.8 hPa SW 4.8 km/h 6.4 km/h 87% 0 mm
11:04 17.3 °C 14.9 °C 1018.8 hPa SSW 6.4 km/h 8 km/h 86% 0 mm
11:09 17.3 °C 15.2 °C 1018.8 hPa Calm   6.4 km/h 87% 0 mm
11:14 17.6 °C 15.4 °C 1018.8 hPa Calm   4.8 km/h 87% 0 mm
11:19 17.7 °C 15.3 °C 1018.8 hPa SSW 1.6 km/h 8 km/h 86% 0 mm
11:24 17.6 °C 15.2 °C 1018.5 hPa SSW 1.6 km/h 8 km/h 86% 0 mm
11:29 17.8 °C 15.4 °C 1018.5 hPa SSW 1.6 km/h 6.4 km/h 86% 0 mm
11:34 17.7 °C 15.2 °C 1018.5 hPa SSW 1.6 km/h 6.4 km/h 85% 0 mm
11:39 17.9 °C 15.3 °C 1018.2 hPa SSW 3.2 km/h 8 km/h 85% 0 mm
11:44 18.2 °C 15.7 °C 1018.5 hPa SSW 1.6 km/h 9.7 km/h 85% 0 mm
11:49 18.4 °C 15.4 °C 1018.5 hPa SSW 3.2 km/h 9.7 km/h 83% 0 mm
11:54 18.2 °C 15.3 °C 1018.5 hPa SW 1.6 km/h 8 km/h 83% 0 mm
11:59 18.4 °C 15.4 °C 1018.5 hPa Calm   6.4 km/h 83% 0 mm
12:04 18.6 °C 15.4 °C 1018.2 hPa South 6.4 km/h 8 km/h 82% 0 mm
12:09 18.8 °C 15.4 °C 1018.2 hPa WSW 8 km/h 8 km/h 81% 0 mm
12:14 18.9 °C 15.4 °C 1018.2 hPa Calm   9.7 km/h 80% 0 mm
12:19 19.2 °C 15.6 °C 1018.2 hPa WSW 6.4 km/h 8 km/h 80% 0 mm
12:24 18.9 °C 15.2 °C 1018.2 hPa SW 6.4 km/h 8 km/h 79% 0 mm
12:29 19.1 °C 15.1 °C 1018.2 hPa SW 4.8 km/h 9.7 km/h 78% 0 mm
12:34 19.1 °C 15 °C 1018.2 hPa SW 3.2 km/h 8 km/h 77% 0 mm
12:39 18.9 °C 15.2 °C 1018.2 hPa SW 1.6 km/h 11.3 km/h 79% 0 mm
12:44 18.8 °C 14.9 °C 1018.2 hPa West 1.6 km/h 8 km/h 78% 0 mm
12:49 18.8 °C 14.9 °C 1018.2 hPa WSW 3.2 km/h 8 km/h 78% 0 mm
12:54 18.8 °C 15.1 °C 1018.2 hPa WSW 3.2 km/h 6.4 km/h 79% 0 mm
12:59 18.9 °C 14.9 °C 1018.2 hPa SW 1.6 km/h 6.4 km/h 78% 0 mm
13:04 19 °C 14.9 °C 1018.2 hPa SW 3.2 km/h 8 km/h 77% 0 mm
13:09 19.2 °C 15.1 °C 1018.2 hPa WSW 3.2 km/h 8 km/h 77% 0 mm
13:14 19.1 °C 15 °C 1017.8 hPa WSW 4.8 km/h 9.7 km/h 77% 0 mm
13:19 19.2 °C 15.1 °C 1017.8 hPa Calm   11.3 km/h 77% 0 mm
13:24 19.6 °C 15.3 °C 1017.8 hPa WSW 4.8 km/h 11.3 km/h 76% 0 mm
13:29 19.9 °C 15.6 °C 1017.8 hPa WSW 3.2 km/h 11.3 km/h 76% 0 mm
13:34 19.7 °C 14.9 °C 1017.8 hPa West 3.2 km/h 11.3 km/h 74% 0 mm
13:39 19.6 °C 15 °C 1017.8 hPa West 3.2 km/h 9.7 km/h 75% 0 mm
13:44 19.5 °C 14.7 °C 1017.8 hPa WSW 4.8 km/h 9.7 km/h 74% 0 mm
13:49 19.6 °C 15.1 °C 1017.5 hPa WSW 4.8 km/h 12.9 km/h 75% 0 mm
13:54 19.7 °C 15.1 °C 1017.5 hPa WSW 4.8 km/h 12.9 km/h 75% 0 mm
13:59 20.1 °C 15.5 °C 1017.5 hPa West 3.2 km/h 8 km/h 75% 0 mm
14:04 20.2 °C 15.2 °C 1017.5 hPa West 3.2 km/h 8 km/h 73% 0 mm
14:09 20.3 °C 15.1 °C 1017.5 hPa SW 8 km/h 11.3 km/h 72% 0 mm
14:14 20.1 °C 14.9 °C 1017.5 hPa WSW 3.2 km/h 11.3 km/h 72% 0 mm
14:24 19.8 °C 15.1 °C 1017.5 hPa WSW 4.8 km/h 12.9 km/h 74% 0 mm
14:29 19.9 °C 15.2 °C 1017.5 hPa WSW 4.8 km/h 12.9 km/h 74% 0 mm
14:34 19.9 °C 15.2 °C 1017.5 hPa West 3.2 km/h 8 km/h 74% 0 mm
14:39 19.8 °C 14.8 °C 1017.5 hPa West 4.8 km/h 9.7 km/h 73% 0 mm
14:44 19.7 °C 15.2 °C 1017.5 hPa WSW 4.8 km/h 9.7 km/h 75% 0 mm
14:49 19.7 °C 15.1 °C 1017.5 hPa West 4.8 km/h 9.7 km/h 75% 0 mm
14:54 19.6 °C 15 °C 1017.5 hPa WSW 6.4 km/h 12.9 km/h 75% 0 mm
14:59 19.6 °C 15.3 °C 1017.5 hPa West 3.2 km/h 8 km/h 76% 0 mm
15:04 19.5 °C 14.9 °C 1017.2 hPa WSW 4.8 km/h 11.3 km/h 75% 0 mm
15:09 19.3 °C 14.6 °C 1017.2 hPa SW 1.6 km/h 6.4 km/h 74% 0 mm
15:14 19.3 °C 15 °C 1016.8 hPa SSW 3.2 km/h 6.4 km/h 76% 0 mm
15:19 19.4 °C 15.1 °C 1017.2 hPa SSW 1.6 km/h 6.4 km/h 76% 0 mm
15:24 19.6 °C 15.2 °C 1016.8 hPa SW 1.6 km/h 6.4 km/h 76% 0 mm
15:29 19.6 °C 15.1 °C 1016.8 hPa WSW 3.2 km/h 8 km/h 75% 0 mm
15:34 19.8 °C 15.4 °C 1016.8 hPa West 3.2 km/h 9.7 km/h 76% 0 mm
15:39 19.8 °C 15.2 °C 1016.8 hPa WSW 3.2 km/h 8 km/h 75% 0 mm
15:49 20.6 °C 16 °C 1016.5 hPa SW 3.2 km/h 8 km/h 75% 0 mm
15:59 20.2 °C 15.4 °C 1016.5 hPa SSW 3.2 km/h 8 km/h 74% 0 mm
16:04 20.2 °C 15.7 °C 1016.5 hPa SSW 3.2 km/h 8 km/h 75% 0 mm
16:09 20.1 °C 15.3 °C 1016.5 hPa WNW 4.8 km/h 9.7 km/h 74% 0 mm
16:14 19.8 °C 15.1 °C 1016.5 hPa WSW 1.6 km/h 9.7 km/h 74% 0 mm
16:19 19.8 °C 15.3 °C 1016.5 hPa WSW 4.8 km/h 9.7 km/h 75% 0 mm
16:24 19.8 °C 15.3 °C 1016.5 hPa SW 3.2 km/h 8 km/h 75% 0 mm
16:29 19.8 °C 15.1 °C 1016.5 hPa WSW 1.6 km/h 6.4 km/h 74% 0 mm
16:34 19.8 °C 15 °C 1016.5 hPa SW 4.8 km/h 6.4 km/h 74% 0 mm
16:39 19.7 °C 15.2 °C 1016.5 hPa SW 4.8 km/h 4.8 km/h 75% 0 mm
16:44 19.7 °C 15.2 °C 1016.5 hPa WSW 1.6 km/h 8 km/h 75% 0 mm
16:49 19.7 °C 15.1 °C 1016.5 hPa WSW 1.6 km/h 8 km/h 75% 0 mm
16:54 19.7 °C 15.1 °C 1016.5 hPa WSW 1.6 km/h 8 km/h 75% 0 mm
16:59 19.7 °C 15.3 °C 1016.5 hPa WSW 1.6 km/h 6.4 km/h 76% 0 mm
17:04 19.7 °C 15.3 °C 1016.5 hPa WSW 1.6 km/h 6.4 km/h 76% 0 mm
17:09 19.6 °C 15.1 °C 1016.5 hPa WSW 3.2 km/h 6.4 km/h 75% 0 mm
17:14 19.6 °C 15.2 °C 1016.5 hPa SW 1.6 km/h 6.4 km/h 76% 0 mm
17:19 19.6 °C 15.2 °C 1016.5 hPa Calm   1.6 km/h 76% 0 mm
17:24 19.5 °C 14.9 °C 1016.5 hPa Calm   4.8 km/h 75% 0 mm
17:29 19.4 °C 15.1 °C 1016.5 hPa Calm   3.2 km/h 76% 0 mm
17:34 19.4 °C 15.1 °C 1016.5 hPa Calm     76% 0 mm
17:39 19.4 °C 14.9 °C 1016.5 hPa Calm     75% 0 mm
17:44 19.4 °C 15.1 °C 1016.5 hPa Calm     76% 0 mm
17:49 19.4 °C 15.1 °C 1016.1 hPa Calm     76% 0 mm
17:54 19.4 °C 15.1 °C 1016.1 hPa Calm     76% 0 mm
17:59 19.4 °C 15.1 °C 1016.1 hPa Calm     76% 0 mm
18:04 19.3 °C 15.2 °C 1016.1 hPa Calm     77% 0 mm
18:09 19.3 °C 14.9 °C 1016.1 hPa Calm     76% 0 mm
18:14 19.3 °C 15.2 °C 1016.1 hPa Calm     77% 0 mm
18:19 19.2 °C 15.1 °C 1016.5 hPa Calm     77% 0 mm
18:24 19.2 °C 15.1 °C 1016.5 hPa Calm     77% 0 mm
18:29 19.2 °C 15.1 °C 1016.5 hPa Calm     77% 0 mm
18:34 19.2 °C 15.2 °C 1016.5 hPa Calm     78% 0 mm
18:39 19.1 °C 14.9 °C 1016.5 hPa Calm     77% 0 mm
18:44 19.1 °C 15.2 °C 1016.5 hPa Calm     78% 0 mm
18:54 19.1 °C 15.1 °C 1016.5 hPa Calm     78% 0 mm
18:59 19 °C 15.1 °C 1016.5 hPa Calm     78% 0 mm
19:04 18.9 °C 15 °C 1016.5 hPa Calm     78% 0 mm
19:09 18.9 °C 15.2 °C 1016.5 hPa Calm     79% 0 mm
19:14 18.8 °C 15.1 °C 1016.5 hPa Calm     79% 0 mm
19:19 18.8 °C 15.3 °C 1016.5 hPa Calm     80% 0 mm
19:24 18.7 °C 15.2 °C 1016.5 hPa SSW 3.2 km/h 8 km/h 80% 0 mm
19:29 18.6 °C 15.2 °C 1016.5 hPa South 3.2 km/h 9.7 km/h 81% 0 mm
19:34 18.4 °C 15.3 °C 1016.1 hPa SSW 3.2 km/h 9.7 km/h 82% 0 mm
19:39 18.3 °C 15.2 °C 1016.5 hPa SSW 3.2 km/h 9.7 km/h 82% 0 mm
19:44 18.3 °C 15.3 °C 1016.1 hPa SSW 1.6 km/h 8 km/h 83% 0 mm
19:49 18.3 °C 15.3 °C 1016.1 hPa SSW 3.2 km/h 6.4 km/h 83% 0 mm
19:54 18.2 °C 15.3 °C 1016.1 hPa SSW 1.6 km/h 9.7 km/h 83% 0 mm
19:59 18.2 °C 15.2 °C 1016.1 hPa SSW 3.2 km/h 9.7 km/h 83% 0 mm
20:04 18.1 °C 15.4 °C 1016.1 hPa SSW 3.2 km/h 9.7 km/h 84% 0 mm
20:09 18.1 °C 15.4 °C 1016.1 hPa SSE 4.8 km/h 9.7 km/h 84% 0 mm
20:14 18.1 °C 15.3 °C 1016.1 hPa SSW 8 km/h 9.7 km/h 84% 0 mm
20:19 18 °C 15.4 °C 1016.1 hPa Calm   8 km/h 85% 0 mm
20:24 17.9 °C 15.4 °C 1016.1 hPa Calm   6.4 km/h 85% 0 mm
20:29 17.9 °C 15.4 °C 1016.1 hPa SSE 3.2 km/h 8 km/h 85% 0 mm
20:39 17.9 °C 15.5 °C 1016.5 hPa SSE 4.8 km/h 9.7 km/h 86% 0 mm
20:44 17.8 °C 15.4 °C 1016.1 hPa SSE 6.4 km/h 8 km/h 86% 0 mm
20:49 17.8 °C 15.6 °C 1016.5 hPa Calm   9.7 km/h 87% 0 mm
20:54 17.8 °C 15.6 °C 1016.5 hPa South 4.8 km/h 6.4 km/h 87% 0 mm
20:59 17.7 °C 15.6 °C 1016.5 hPa South 1.6 km/h 6.4 km/h 87% 0 mm
21:04 17.7 °C 15.6 °C 1016.5 hPa Calm   6.4 km/h 87% 0 mm
21:09 17.7 °C 15.7 °C 1016.5 hPa SSE 3.2 km/h 8 km/h 88% 0 mm
21:14 17.6 °C 15.6 °C 1016.5 hPa Calm   6.4 km/h 88% 0 mm
21:24 17.5 °C 15.7 °C 1016.5 hPa Calm     89% 0 mm
21:29 17.4 °C 15.6 °C 1016.5 hPa Calm     89% 0 mm
21:34 17.3 °C 15.5 °C 1016.5 hPa Calm     89% 0 mm
21:39 17.3 °C 15.6 °C 1016.5 hPa Calm     90% 0 mm
21:44 17.3 °C 15.6 °C 1016.5 hPa Calm     90% 0 mm
21:49 17.3 °C 15.6 °C 1016.5 hPa Calm     90% 0 mm
21:54 17.3 °C 15.6 °C 1016.5 hPa Calm     90% 0 mm
22:04 17.3 °C 15.6 °C 1016.5 hPa Calm     90% 0 mm
22:09 17.3 °C 15.6 °C 1016.5 hPa Calm     90% 0 mm
22:14 17.2 °C 15.6 °C 1016.1 hPa Calm     90% 0 mm
22:19 17.2 °C 15.6 °C 1016.1 hPa Calm     90% 0 mm
22:29 17.2 °C 15.6 °C 1016.1 hPa Calm     90% 0 mm
22:34 17.2 °C 15.5 °C 1016.1 hPa Calm     90% 0 mm
22:39 17.2 °C 15.6 °C 1016.1 hPa Calm     90% 0 mm
22:44 17.2 °C 15.6 °C 1016.1 hPa Calm     90% 0 mm
22:49 17.3 °C 15.6 °C 1016.5 hPa Calm     90% 0 mm
22:54 17.3 °C 15.6 °C 1016.5 hPa Calm     90% 0 mm
22:59 17.3 °C 15.6 °C 1016.5 hPa Calm     90% 0 mm
23:04 17.3 °C 15.8 °C 1016.5 hPa Calm     91% 0.25 mm
23:09 17.3 °C 15.8 °C 1016.5 hPa Calm     91% 0.25 mm
23:14 17.3 °C 15.8 °C 1016.5 hPa Calm     91% 0.25 mm
23:19 17.4 °C 15.9 °C 1016.5 hPa Calm     91% 0.25 mm
23:24 17.3 °C 15.8 °C 1016.5 hPa Calm     91% 0.25 mm
23:29 17.4 °C 15.9 °C 1016.1 hPa Calm     91% 0.25 mm
23:34 17.4 °C 15.9 °C 1016.1 hPa Calm     91% 0.25 mm
23:39 17.4 °C 15.7 °C 1016.1 hPa Calm     90% 0.25 mm
23:44 17.4 °C 15.9 °C 1016.1 hPa Calm     91% 0.25 mm
23:49 17.4 °C 15.9 °C 1016.1 hPa Calm     91% 0.25 mm
23:54 17.4 °C 15.9 °C 1016.1 hPa Calm     91% 0.25 mm
23:59 17.5 °C 16 °C 1016.1 hPa Calm     91% 0.25 mm
Buffalo, New York, USA
Compliments of Weather Underground - 2.25 mb